Location: Beaurecueil
(43.5122°N, 5.5450°E)
Time: 13:58:19
(UTC+00:00)

Lacrosse 5 rocket - Pass Details

Date: 18 September 2020
Orbit: 460 x 636 km, 57.0° (Epoch: 30 October)

Event Time Altitude Azimuth Distance (km) Brightness Sun altitude
Rises 18:05:52 0° 257° (WSW) 2,701 6.5 -5.2°
Reaches altitude 10° 18:08:14 10° 268° (W) 1,843 5.8 -5.6°
Maximum altitude 18:11:58 30° 331° (NNW) 1,044 3.2 -6.3°
Drops below altitude 10° 18:15:54 10° 34° (NNE) 1,945 3.9 -7.0°
Sets 18:18:28 0° 45° (NE) 2,877 4.6 -7.4°
